Home   Weather   USA   Rochester   Past weeks
Flag for USA

Past Weather in Rochester, Minnesota, USA — Yesterday and Last 2 Weeks

Currently: 43 °F. Sunny. (Weather station: St Mary's Hospital Heliport Rochester, USA). See more current weather

Past Weather in Rochester — Graph

°F

Rochester Temperature Yesterday

Maximum temperature yesterday: 42 °F (at 3:35 pm)
Minimum temperature yesterday: 30 °F (at 11:35 pm)
Average temperature yesterday: 35 °F

High & Low Weather Summary for the Past Weeks

 TemperatureHumidityPressure
High49 °F (Mar 3, 3:15 pm)100% (Feb 21, 12:55 pm)30.40 "Hg (Feb 21, 12:55 pm)
Low-4 °F (Feb 20, 5:55 am)37% (Mar 3, 2:15 pm)29.51 "Hg (Feb 22, 5:55 pm)
Average30 °F73%30.03 "Hg
* Reported Feb 19 10:15 am — Mar 6 10:55 am, Rochester. Weather by CustomWeather, © 2021

Note: Actual official high and low records may vary slightly from our data, if they occured in-between our weather recording intervals... More about our weather records

Rochester Weather History for the Previous 24 Hours

Scroll right to see more
 ConditionsComfort  
Time TempWeatherWind HumidityBarometerVisibility
10:55 am
Sat, Mar 6
40 °FSunny.3 mph52%30.34 "Hg10 mi
10:35 am38 °FSunny.6 mph53%30.34 "Hg10 mi
10:15 am38 °FSunny.6 mph55%30.34 "Hg10 mi
9:55 am36 °FSunny.5 mph61%30.33 "Hg10 mi
9:35 am35 °FSunny.5 mph65%30.34 "Hg10 mi
9:15 am34 °FSunny.5 mph67%30.34 "Hg10 mi
8:55 am32 °FSunny.3 mph70%30.35 "Hg10 mi
8:35 am31 °FSunny.No wind71%30.35 "Hg10 mi
8:15 am29 °FSunny.No wind75%30.35 "Hg10 mi
7:55 am27 °FSunny.No wind81%30.34 "Hg10 mi
7:15 am26 °FSunny.No wind82%30.33 "Hg10 mi
6:55 am24 °FSunny.No wind85%30.33 "Hg10 mi
6:15 am25 °FClear.No wind84%30.33 "Hg10 mi
5:55 am26 °FClear.No wind83%30.33 "Hg10 mi
5:15 am26 °FClear.No wind84%30.34 "Hg10 mi
4:55 am26 °FClear.No wind83%30.33 "Hg10 mi
4:35 am26 °FClear.No wind83%30.33 "Hg10 mi
3:55 am27 °FClear.No wind81%30.31 "Hg10 mi
3:15 am28 °FClear.No wind80%30.33 "Hg10 mi
2:55 am27 °FClear.No wind84%30.33 "Hg10 mi
2:35 am27 °FClear.No wind83%30.33 "Hg10 mi
2:15 am28 °FClear.No wind81%30.33 "Hg10 mi
1:55 am28 °FClear.No wind81%30.33 "Hg10 mi
1:35 am28 °FClear.No wind82%30.33 "Hg10 mi
1:15 am28 °FClear.No wind80%30.33 "Hg10 mi
12:55 am28 °FClear.No wind80%30.33 "Hg10 mi
12:35 am29 °FClear.No wind80%30.33 "Hg10 mi
11:55 pm
Fri, Mar 5
30 °FClear.No wind75%30.33 "Hg10 mi
11:35 pm30 °FClear.No wind76%30.33 "Hg10 mi
11:15 pm32 °FClear.No wind71%30.32 "Hg10 mi
10:55 pm32 °FClear.No wind71%30.33 "Hg10 mi
10:35 pm32 °FClear.No wind71%30.33 "Hg10 mi
10:15 pm33 °FClear.No wind70%30.33 "Hg10 mi
9:55 pm32 °FClear.No wind74%30.34 "Hg10 mi
9:35 pm33 °FClear.No wind71%30.34 "Hg10 mi
9:15 pm33 °FClear.No wind70%30.33 "Hg10 mi
8:55 pm34 °FClear.No wind68%30.33 "Hg10 mi
8:35 pm35 °FClear.No wind67%30.34 "Hg10 mi
8:15 pm35 °FClear.No wind67%30.34 "Hg10 mi
7:35 pm36 °FPassing clouds.No wind63%30.34 "Hg10 mi
7:15 pm36 °FClear.No wind62%30.34 "Hg10 mi
6:55 pm36 °FClear.3 mph61%30.33 "Hg10 mi
6:15 pm38 °FOvercast.No wind56%30.33 "Hg10 mi
5:55 pm39 °FOvercast.No wind50%30.33 "Hg10 mi
5:35 pm39 °FOvercast.3 mph48%30.34 "Hg10 mi
5:15 pm39 °FOvercast.3 mph46%30.34 "Hg10 mi
4:55 pm39 °FMostly cloudy.3 mph45%30.35 "Hg10 mi
4:35 pm39 °FOvercast.3 mph45%30.35 "Hg10 mi
4:15 pm40 °FMostly cloudy.3 mph43%30.34 "Hg10 mi
3:55 pm41 °FMostly cloudy.6 mph43%30.34 "Hg10 mi
3:35 pm42 °FMostly cloudy.5 mph42%30.34 "Hg10 mi
3:15 pm41 °FMore clouds than sun.No wind45%30.34 "Hg10 mi
2:55 pm40 °FBroken clouds.5 mph48%30.34 "Hg10 mi
2:35 pm40 °FOvercast.5 mph52%30.35 "Hg10 mi
2:15 pm39 °FMore clouds than sun.3 mph54%30.35 "Hg10 mi
1:55 pm38 °FMore clouds than sun.5 mph56%30.36 "Hg10 mi
1:35 pm37 °FCloudy.6 mph58%30.35 "Hg10 mi
1:15 pm36 °FOvercast.6 mph60%30.36 "Hg10 mi
12:55 pm36 °FOvercast.3 mph60%30.37 "Hg10 mi
12:15 pm36 °FOvercast.3 mph59%30.39 "Hg10 mi
Weather by CustomWeather, © 2021

See weather overview